| time (UTC) | temp F | wind direction | speed MPH | gust MPH | rain 1hr in | rain 24hr in | rain mn in | humidity % | barometer mb |
| 20260502210033 | 90 | 91 | 7.0 | 7.0 | 0.00 | 0.00 | 0.00 | 35 | 1008.0 |
| 20260502205032 | 90 | 91 | 7.0 | 7.0 | 0.00 | 0.00 | 0.00 | 35 | 1008.0 |
| 20260502204032 | 89 | 91 | 7.0 | 7.0 | 0.00 | 0.00 | 0.00 | 35 | 1008.0 |
| 20260502203032 | 88 | 91 | 7.0 | 7.0 | 0.00 | 0.00 | 0.00 | 35 | 1008.0 |
| 20260502202031 | 87 | 91 | 7.0 | 7.0 | 0.00 | 0.00 | 0.00 | 35 | 1008.0 |
| 20260502201031 | 86 | 91 | 7.0 | 7.0 | 0.00 | 0.00 | 0.00 | 35 | 1008.0 |
| 20260502200031 | 85 | 91 | 7.0 | 7.0 | 0.00 | 0.00 | 0.00 | 35 | 1008.0 |
| 20260502195030 | 85 | 91 | 7.0 | 7.0 | 0.00 | 0.00 | 0.00 | 35 | 1008.0 |
| 20260502194030 | 84 | 91 | 7.0 | 7.0 | 0.00 | 0.00 | 0.00 | 35 | 1008.0 |
| 20260502193030 | 83 | 95 | 6.0 | 6.0 | 0.00 | 0.00 | 0.00 | 40 | 1009.0 |
| 20260502192029 | 83 | 95 | 6.0 | 6.0 | 0.00 | 0.00 | 0.00 | 40 | 1009.0 |
| 20260502191029 | 83 | 95 | 6.0 | 6.0 | 0.00 | 0.00 | 0.00 | 41 | 1009.0 |
| 20260502190029 | 83 | 95 | 6.0 | 6.0 | 0.00 | 0.00 | 0.00 | 42 | 1009.0 |
| 20260502185028 | 95 | 91 | 3.0 | 5.0 | 0.00 | 0.00 | 0.00 | 60 | 1009.0 |
| 20260502184028 | 94 | 91 | 3.0 | 5.0 | 0.00 | 0.00 | 0.00 | 60 | 1009.0 |
| 20260502183028 | 93 | 91 | 3.0 | 5.0 | 0.00 | 0.00 | 0.00 | 60 | 1009.0 |
| 20260502182027 | 92 | 91 | 3.0 | 5.0 | 0.00 | 0.00 | 0.00 | 60 | 1010.0 |
| 20260502181027 | 91 | 91 | 3.0 | 5.0 | 0.00 | 0.00 | 0.00 | 60 | 1010.0 |
| 20260502164024 | 84 | 91 | 3.0 | 5.0 | 0.00 | 0.00 | 0.00 | 60 | 1012.0 |
| 20260502163024 | 83 | 91 | 3.0 | 5.0 | 0.00 | 0.00 | 0.00 | 60 | 1013.0 |
| 20260502162024 | 82 | 91 | 3.0 | 5.0 | 0.00 | 0.00 | 0.00 | 60 | 1013.0 |
| 20260502161023 | 81 | 91 | 3.0 | 5.0 | 0.00 | 0.00 | 0.00 | 60 | 1013.0 |
| 20260502152021 | 84 | 54 | 1.0 | 3.0 | 0.00 | 0.00 | 0.00 | 74 | 1013.0 |
| 20260502151021 | 84 | 54 | 1.0 | 3.0 | 0.00 | 0.00 | 0.00 | 74 | 1013.0 |
| 20260502123016 | 68 | 54 | 2.0 | 3.0 | 0.00 | 0.00 | 0.00 | 74 | 1013.0 |
| 20260502122016 | 71 | 35 | 1.0 | 1.0 | 0.00 | 0.00 | 0.00 | 74 | 1013.0 |
| 20260502121016 | 70 | 35 | 1.0 | 1.0 | 0.00 | 0.00 | 0.00 | 74 | 1013.0 |
| 20260502115015 | 69 | 35 | 1.0 | 1.0 | 0.00 | 0.00 | 0.00 | 74 | 1013.0 |
| 20260502114015 | 68 | 35 | 1.0 | 1.0 | 0.00 | 0.00 | 0.00 | 74 | 1013.0 |
| 20260502113014 | 68 | 35 | 1.0 | 1.0 | 0.00 | 0.00 | 0.00 | 74 | 1013.0 |
| 20260502112014 | 67 | 35 | 1.0 | 1.0 | 0.00 | 0.00 | 0.00 | 74 | 1012.0 |
| 20260502111014 | 66 | 35 | 1.0 | 1.0 | 0.00 | 0.00 | 0.00 | 74 | 1012.0 |
| 20260502110013 | 66 | 35 | 1.0 | 1.0 | 0.00 | 0.00 | 0.00 | 74 | 1012.0 |
| 20260502105013 | 65 | 35 | 1.0 | 1.0 | 0.00 | 0.00 | 0.00 | 74 | 1012.0 |
| 20260502104013 | 64 | 35 | 1.0 | 1.0 | 0.00 | 0.00 | 0.00 | 74 | 1012.0 |
| 20260502103013 | 63 | 35 | 2.0 | 2.0 | 0.00 | 0.00 | 0.00 | 74 | 1012.0 |
| 20260502102013 | 63 | 35 | 2.0 | 2.0 | 0.00 | 0.00 | 0.00 | 74 | 1012.0 |
| 20260502101012 | 70 | 48 | 1.0 | 1.0 | 0.00 | 0.00 | 0.00 | 74 | 1012.0 |
| 20260502091010 | 70 | 39 | 1.0 | 1.0 | 0.00 | 0.00 | 0.00 | 74 | 1012.0 |
| 20260502071006 | 64 | 54 | 2.0 | 2.0 | 0.00 | 0.00 | 0.00 | 74 | 1012.0 |
| 20260502070006 | 71 | 71 | 1.0 | 3.0 | 0.00 | 0.00 | 0.00 | 75 | 1012.0 |
| 20260502065005 | 70 | 71 | 1.0 | 3.0 | 0.00 | 0.00 | 0.00 | 75 | 1012.0 |
| 20260502064005 | 70 | 71 | 1.0 | 3.0 | 0.00 | 0.00 | 0.00 | 75 | 1012.0 |
| 20260502063005 | 69 | 71 | 1.0 | 3.0 | 0.00 | 0.00 | 0.00 | 75 | 1013.0 |
| 20260502062005 | 68 | 71 | 2.0 | 3.0 | 0.00 | 0.00 | 0.00 | 75 | 1013.0 |
| 20260502061004 | 71 | 71 | 1.0 | 3.0 | 0.00 | 0.00 | 0.00 | 76 | 1013.0 |
| 20260502060004 | 70 | 71 | 2.0 | 3.0 | 0.00 | 0.00 | 0.00 | 76 | 1013.0 |
| 20260502055004 | 71 | 71 | 2.0 | 3.0 | 0.00 | 0.00 | 0.00 | 76 | 1013.0 |
| 20260502054003 | 72 | 71 | 2.0 | 3.0 | 0.00 | 0.00 | 0.00 | 74 | 1013.0 |
| 20260502053003 | 73 | 74 | 3.0 | 3.0 | 0.00 | 0.00 | 0.00 | 70 | 1013.0 |
| 20260502052003 | 72 | 74 | 3.0 | 3.0 | 0.00 | 0.00 | 0.00 | 70 | 1013.0 |
| 20260502051002 | 71 | 74 | 3.0 | 3.0 | 0.00 | 0.00 | 0.00 | 70 | 1013.0 |
| 20260502050002 | 70 | 74 | 3.0 | 3.0 | 0.00 | 0.00 | 0.00 | 70 | 1013.0 |
| 20260502045002 | 69 | 74 | 3.0 | 3.0 | 0.00 | 0.00 | 0.00 | 70 | 1013.0 |
| 20260502044001 | 68 | 74 | 3.0 | 3.0 | 0.00 | 0.00 | 0.00 | 70 | 1013.0 |
| 20260502043001 | 74 | 67 | 3.0 | 1.0 | 0.00 | 0.00 | 0.00 | 64 | 1013.0 |
| 20260502042001 | 73 | 67 | 3.0 | 1.0 | 0.00 | 0.00 | 0.00 | 64 | 1013.0 |
| 20260502041000 | 72 | 67 | 3.0 | 1.0 | 0.00 | 0.00 | 0.00 | 64 | 1013.0 |
| 20260502040000 | 71 | 67 | 3.0 | 1.0 | 0.00 | 0.00 | 0.00 | 64 | 1013.0 |
| 20260502034959 | 70 | 67 | 3.0 | 1.0 | 0.00 | 0.00 | 0.00 | 64 | 1013.0 |
| 20260502033959 | 69 | 67 | 3.0 | 1.0 | 0.00 | 0.00 | 0.00 | 64 | 1013.0 |
| 20260502032958 | 68 | 67 | 3.0 | 1.0 | 0.00 | 0.00 | 0.00 | 64 | 1012.0 |
| 20260502031958 | 75 | 67 | 3.0 | 1.0 | 0.00 | 0.00 | 0.00 | 66 | 1012.0 |
| 20260502030958 | 74 | 67 | 3.0 | 1.0 | 0.00 | 0.00 | 0.00 | 66 | 1012.0 |
| 20260502025958 | 73 | 67 | 3.0 | 1.0 | 0.00 | 0.00 | 0.00 | 66 | 1012.0 |
| 20260502024957 | 72 | 67 | 3.0 | 1.0 | 0.00 | 0.00 | 0.00 | 66 | 1012.0 |
| 20260502023957 | 75 | 70 | 3.0 | 1.0 | 0.00 | 0.00 | 0.00 | 61 | 1012.0 |
| 20260502022956 | 74 | 70 | 3.0 | 1.0 | 0.00 | 0.00 | 0.00 | 61 | 1011.0 |
| 20260502021956 | 73 | 70 | 3.0 | 1.0 | 0.00 | 0.00 | 0.00 | 61 | 1011.0 |
| 20260502020956 | 72 | 70 | 3.0 | 1.0 | 0.00 | 0.00 | 0.00 | 61 | 1011.0 |
| 20260502015956 | 71 | 70 | 3.0 | 2.0 | 0.00 | 0.00 | 0.00 | 61 | 1011.0 |
| 20260502014955 | 76 | 75 | 3.0 | 1.0 | 0.00 | 0.00 | 0.00 | 55 | 1011.0 |
| 20260502013955 | 75 | 75 | 3.0 | 1.0 | 0.00 | 0.00 | 0.00 | 55 | 1011.0 |
| 20260502012955 | 74 | 75 | 3.0 | 2.0 | 0.00 | 0.00 | 0.00 | 55 | 1010.0 |
| 20260502011954 | 77 | 75 | 3.0 | 1.0 | 0.00 | 0.00 | 0.00 | 57 | 1010.0 |
| 20260502010954 | 76 | 75 | 3.0 | 2.0 | 0.00 | 0.00 | 0.00 | 57 | 1010.0 |
| 20260502005954 | 77 | 75 | 3.0 | 2.0 | 0.00 | 0.00 | 0.00 | 58 | 1010.0 |
| 20260502004953 | 77 | 75 | 3.0 | 2.0 | 0.00 | 0.00 | 0.00 | 58 | 1010.0 |
| 20260502003953 | 80 | 97 | 1.0 | 1.0 | 0.00 | 0.00 | 0.00 | 53 | 1010.0 |
| 20260502002953 | 79 | 97 | 1.0 | 1.0 | 0.00 | 0.00 | 0.00 | 53 | 1009.0 |
| 20260502001953 | 78 | 97 | 1.0 | 1.0 | 0.00 | 0.00 | 0.00 | 53 | 1009.0 |
| 20260502000952 | 77 | 97 | 1.0 | 1.0 | 0.00 | 0.00 | 0.00 | 53 | 1009.0 |
| 20260501235952 | 76 | 97 | 1.0 | 1.0 | 0.00 | 0.00 | 0.00 | 53 | 1009.0 |
| 20260501234952 | 75 | 97 | 2.0 | 2.0 | 0.00 | 0.00 | 0.00 | 53 | 1009.0 |
| 20260501233952 | 80 | 114 | 5.0 | 10.0 | 0.00 | 0.00 | 0.00 | 48 | 1009.0 |
| 20260501232951 | 79 | 114 | 5.0 | 10.0 | 0.00 | 0.00 | 0.00 | 48 | 1008.0 |
| 20260501231951 | 78 | 114 | 5.0 | 10.0 | 0.00 | 0.00 | 0.00 | 48 | 1008.0 |
| 20260501230951 | 84 | 114 | 5.0 | 10.0 | 0.00 | 0.00 | 0.00 | 50 | 1008.0 |
| 20260501225950 | 83 | 114 | 5.0 | 10.0 | 0.00 | 0.00 | 0.00 | 50 | 1008.0 |
| 20260501224950 | 82 | 114 | 5.0 | 10.0 | 0.00 | 0.00 | 0.00 | 50 | 1008.0 |
| 20260501223949 | 81 | 114 | 5.0 | 10.0 | 0.00 | 0.00 | 0.00 | 50 | 1008.0 |
| 20260501222949 | 88 | 103 | 8.0 | 8.0 | 0.00 | 0.00 | 0.00 | 40 | 1007.0 |
| 20260501221949 | 87 | 103 | 8.0 | 8.0 | 0.00 | 0.00 | 0.00 | 40 | 1007.0 |
| 20260501220948 | 86 | 103 | 8.0 | 8.0 | 0.00 | 0.00 | 0.00 | 40 | 1007.0 |
| 20260501215948 | 85 | 103 | 9.0 | 8.0 | 0.00 | 0.00 | 0.00 | 40 | 1007.0 |
| 20260501214948 | 93 | 87 | 7.0 | 5.0 | 0.00 | 0.00 | 0.00 | 36 | 1007.0 |
| 20260501213947 | 93 | 87 | 7.0 | 5.0 | 0.00 | 0.00 | 0.00 | 36 | 1007.0 |
| 20260501212947 | 92 | 87 | 7.0 | 5.0 | 0.00 | 0.00 | 0.00 | 36 | 1007.0 |
| 20260501211947 | 91 | 87 | 7.0 | 5.0 | 0.00 | 0.00 | 0.00 | 36 | 1007.0 |
| 20260501210946 | 91 | 87 | 7.0 | 5.0 | 0.00 | 0.00 | 0.00 | 36 | 1007.0 |